Pine Bluff, AR

7:45 PM CDT on April 25, 2017 (GMT -0500)
Grider

Weather History for KPBF - November, 2012

Change the Weather History Date:

Monday, November 5, 2012

  Actual Average Record
Temperature  
Mean Temperature 49 °F 57 °F  
Max Temperature 56 °F 68 °F 86 °F (1920)
Min Temperature 41 °F 46 °F 23 °F (1899)
Degree Days  
Heating Degree Days 16 9  
Month to date heating degree days 37 42  
Since 1 July heating degree days 210 179  
Cooling Degree Days 0 1  
Month to date cooling degree days 5 5  
Year to date cooling degree days 2383 2124  
Moisture  
Dew Point 45 °F    
Average Humidity 83    
Maximum Humidity 100    
Minimum Humidity 66    
Precipitation  
Precipitation 0.05 in 0.15 in 2.45 in (1925)
Month to date precipitation 0.76 0.74  
Year to date precipitation 39.05 41.62  
Snow  
Snow 0.00 in 0.00 in - ()
Month to date snowfall 0.0 0.0  
Since 1 July snowfall 0.0 0.0  
Since 1 September snowfall 0.0 0.0  
Snow Depth 0.00 in    
Sea Level Pressure  
Sea Level Pressure 30.03 in    
Wind  
Wind Speed 2 mph (ENE)    
Max Wind Speed 10 mph    
Max Gust Speed 18 mph    
Visibility 9 miles    
Events Rain , Thunderstorm    
T = Trace of Precipitation, MM = Missing Value Source: NWS Daily Summary

Daily Weather History Graph

Daily Weather History Graph

Search for Another Location

Airport or City:

Trip Planner

Search our weather history database for the weather conditions in past years. The results will help you decide how hot, cold, wet, or windy it might be!

Date:

Astronomy

Nov. 05, 2012 Rise Set
Actual Time 6:31 AM CST 5:10 PM CST
Civil Twilight 6:05 AM CST 5:36 PM CST
Nautical Twilight 5:35 AM CST 6:06 PM CST
Astronomical Twilight 5:06 AM CST 6:35 PM CST
Moon 10:48 PM CST (11/5) 11:50 AM CST (11/5)
Length of Visible Light 11h 31m
Length of Day
10h 39m
Waning Gibbous, 62% of the Moon is Illuminated
Nov 5
Waning Gibbous
Nov 6
Last Quarter
Nov 13
New
Nov 20
First Quarter
Nov 28
Full

Hourly Weather History & Observations

Time (CST) Temp. Windchill Dew Point Humidity Pressure Visibility Wind Dir Wind Speed Gust Speed Precip Events Conditions
12:53 AM 43.0 °F - 42.1 °F 97% 30.12 in 8.0 mi Calm Calm - N/A   Partly Cloudy
1:53 AM 43.0 °F - 41.0 °F 93% 30.10 in 10.0 mi Calm Calm - N/A   Clear
2:53 AM 41.0 °F - 39.9 °F 96% 30.09 in 10.0 mi Calm Calm - N/A   Partly Cloudy
3:53 AM 45.0 °F - 43.0 °F 93% 30.09 in 10.0 mi Calm Calm - N/A   Overcast
4:53 AM 46.0 °F - 43.0 °F 89% 30.08 in 10.0 mi Calm Calm - N/A   Mostly Cloudy
5:53 AM 46.0 °F - 43.0 °F 89% 30.07 in 10.0 mi Calm Calm - N/A   Scattered Clouds
6:53 AM 46.9 °F - 43.0 °F 86% 30.08 in 10.0 mi Calm Calm - N/A   Overcast
7:53 AM 48.9 °F - 42.1 °F 77% 30.09 in 10.0 mi Calm Calm - N/A   Mostly Cloudy
8:53 AM 50.0 °F - 44.1 °F 80% 30.08 in 10.0 mi SE 4.6 mph - N/A   Mostly Cloudy
9:53 AM 51.1 °F - 43.0 °F 74% 30.08 in 10.0 mi South 3.5 mph - N/A   Overcast
10:53 AM 53.1 °F - 44.1 °F 71% 30.06 in 10.0 mi SE 3.5 mph - N/A   Overcast
11:53 AM 55.0 °F - 44.1 °F 67% 30.02 in 10.0 mi SE 4.6 mph - N/A   Overcast
12:53 PM 55.9 °F - 46.0 °F 69% 29.99 in 10.0 mi East 6.9 mph - 0.00 in   Overcast
1:53 PM 55.9 °F - 46.9 °F 72% 29.98 in 10.0 mi East 4.6 mph - 0.00 in Rain Light Rain
2:17 PM 53.6 °F - 46.4 °F 77% 29.98 in 8.0 mi ESE 5.8 mph - 0.01 in Rain , Thunderstorm Rain
2:30 PM 53.6 °F - 48.2 °F 82% 29.97 in 10.0 mi East 5.8 mph - 0.02 in Rain , Thunderstorm Light Rain
2:51 PM 55.4 °F - 48.2 °F 77% 29.97 in 10.0 mi East 5.8 mph - 0.02 in   Overcast
2:53 PM 55.0 °F - 48.0 °F 77% 29.98 in 10.0 mi East 5.8 mph - 0.02 in   Overcast
3:53 PM 55.9 °F - 46.9 °F 72% 29.98 in 10.0 mi ESE 6.9 mph - N/A   Clear
4:53 PM 51.1 °F - 48.0 °F 89% 29.99 in 10.0 mi East 3.5 mph - N/A   Clear
5:53 PM 50.0 °F - 48.0 °F 93% 29.99 in 10.0 mi Calm Calm - N/A   Partly Cloudy
6:53 PM 48.9 °F - 48.0 °F 97% 30.02 in 10.0 mi NE 3.5 mph - 0.00 in Rain Light Rain
7:53 PM 48.9 °F - 48.0 °F 97% 30.02 in 10.0 mi Calm Calm - 0.01 in   Mostly Cloudy
8:53 PM 50.0 °F - 48.9 °F 96% 30.03 in 7.0 mi Calm Calm - 0.01 in Rain Light Rain
9:53 PM 48.9 °F - 48.0 °F 97% 30.03 in 5.0 mi WNW 3.5 mph - 0.01 in   Mostly Cloudy
10:38 PM 46.4 °F 43.5 °F 46.4 °F 100% 30.03 in 4.0 mi North 5.8 mph - N/A   Partly Cloudy
10:53 PM 46.9 °F - 46.9 °F 100% 30.02 in 5.0 mi North 4.6 mph - N/A   Mostly Cloudy
11:03 PM 46.4 °F 45.2 °F 46.4 °F 100% 30.03 in 5.0 mi NNW 3.5 mph - N/A   Scattered Clouds
11:33 PM 46.4 °F 44.3 °F 46.4 °F 100% 30.03 in 4.0 mi North 4.6 mph - N/A   Mostly Cloudy
11:53 PM 46.0 °F 44.8 °F 46.0 °F 100% 30.03 in 4.0 mi North 3.5 mph - N/A   Scattered Clouds